Tracking 35274 objects as of 11-Sep-2026
HD Live streaming from Space Station
objects crossing your sky now

STARLINK-35637

Track STARLINK-35637 now!
10-day predictions
STARLINK-35637 is classified as:


NORAD ID: 66130
Int'l Code: 2025-237S
Launch date: October 22, 2025
Source: United States (US)
Launch site: AIR FORCE WESTERN TEST RANGE (AFWTR)
Your satellite tracking list
Your tracking list is empty




NASA's NSSDC Master Catalog

Two Line Element Set (TLE):
1 66130U 25237S   26253.38637801  .00015805  00000-0  47771-3 0  9997
2 66130  53.1570 260.6505 0000840 101.2082 258.9015 15.34414133 50902
Source of the keplerian elements: AFSPC